Location: Marion Hill
(40.7303°N, 80.2959°W)
Time: 23:21:39
(UTC+00:00)

Tianhe-1 - Visible Passes

Search period start: 22 June 2021 00:00
Search period end: 02 July 2021 00:00
Orbit: 375 x 385 km, 41.5° (Epoch: 22 June)

Date Brightness Start Highest point End Pass type
(mag) Time Alt. Az. Time Alt. Az. Time Alt. Az.
22 Jun 1.0 08:33:27 20° WSW 08:35:26 69° SSE 08:38:35 10° E visible
23 Jun 1.9 07:35:02 39° ESE 07:35:02 39° ESE 07:37:28 10° E visible
23 Jun 1.2 09:07:58 10° W 09:11:07 77° N 09:14:16 10° E visible
24 Jun 0.9 08:08:35 32° W 08:09:54 89° S 08:13:04 10° E visible
25 Jun 2.6 07:09:57 30° E 07:09:57 30° E 07:11:44 10° E visible
25 Jun 1.2 08:42:13 10° W 08:45:22 75° N 08:48:31 10° E visible
26 Jun 1.1 07:43:21 56° WNW 07:43:54 78° N 07:47:03 10° E visible
27 Jun 3.5 06:44:37 17° E 06:44:37 17° E 06:45:29 10° E visible
27 Jun 1.1 08:16:43 16° W 08:19:07 81° N 08:22:15 10° E visible
28 Jun 1.7 07:18:01 53° ENE 07:18:01 53° ENE 07:20:33 10° E visible
28 Jun 1.0 08:51:01 10° W 08:54:07 60° SSW 08:57:12 10° ESE visible
29 Jun 0.9 07:51:35 48° W 07:52:21 85° S 07:55:29 10° ESE visible
30 Jun 3.9 06:53:19 12° E 06:53:19 12° E 06:53:33 10° E visible
30 Jun 1.4 08:25:28 22° W 08:27:01 41° SSW 08:29:59 10° SE visible
01 Jul 3.6 07:27:45 13° ESE 07:27:45 13° ESE 07:28:09 10° ESE visible
01 Jul 2.7 08:59:55 13° WSW 09:01:22 16° SSW 09:03:25 10° S visible
